�������l�o���
Date,Time,MP-1(��Sv/h),MP-2(��Sv/h),MP-3(��Sv/h),MP-4(��Sv/h),MP-5(��Sv/h),MP-6(��Sv/h),MP-7(��Sv/h),MP-8(��Sv/h),����,����(m/s),���J
2017/12/05,00:00,0.871,1.409,0.904,1.687,1.145,0.488,0.865,0.831,��쓌,1.5,��
2017/12/05,00:10,0.867,1.405,0.906,1.686,1.144,0.488,0.867,0.833,��쓌,0.9,�L
2017/12/05,00:20,0.869,1.410,0.904,1.687,1.146,0.488,0.867,0.832,��,1.1,��
2017/12/05,00:30,0.870,1.408,0.906,1.687,1.144,0.489,0.866,0.832,-,CALM,��
2017/12/05,00:40,0.870,1.409,0.906,1.688,1.146,0.487,0.867,0.833,���쐼,0.9,��
2017/12/05,00:50,0.870,1.411,0.907,1.688,1.145,0.488,0.867,0.830,��쐼,0.8,��
2017/12/05,01:00,0.871,1.409,0.907,1.686,1.145,0.489,0.867,0.833,�쐼,0.9,��
2017/12/05,01:10,0.869,1.412,0.907,1.687,1.146,0.489,0.867,0.833,���k��,4.5,��
2017/12/05,01:20,0.870,1.412,0.909,1.686,1.148,0.489,0.867,0.833,���k��,5.3,��
2017/12/05,01:30,0.871,1.412,0.906,1.689,1.147,0.488,0.867,0.832,�k��,1.1,��
2017/12/05,01:40,0.870,1.410,0.907,1.687,1.148,0.488,0.867,0.834,-,CALM,��
2017/12/05,01:50,0.871,1.412,0.908,1.689,1.149,0.489,0.868,0.831,�k�k��,0.8,��
2017/12/05,02:00,0.872,1.413,0.909,1.688,1.148,0.489,0.868,0.833,-,CALM,��
2017/12/05,02:10,0.871,1.412,0.906,1.688,1.146,0.489,0.869,0.832,���k��,0.8,��
2017/12/05,02:20,0.871,1.412,0.908,1.692,1.147,0.489,0.866,0.833,��,0.9,��
2017/12/05,02:30,0.870,1.413,0.909,1.690,1.150,0.489,0.868,0.832,��,1.7,��
2017/12/05,02:40,0.871,1.412,0.909,1.689,1.150,0.489,0.868,0.833,���k��,2.0,��
2017/12/05,02:50,0.873,1.411,0.905,1.689,1.149,0.490,0.869,0.834,���k��,2.3,��
2017/12/05,03:00,0.871,1.414,0.907,1.691,1.148,0.491,0.869,0.834,���k��,4.3,��
2017/12/05,03:10,0.870,1.415,0.905,1.692,1.150,0.489,0.868,0.835,�k��,5.1,��
2017/12/05,03:20,0.871,1.410,0.907,1.689,1.151,0.490,0.868,0.835,�k��,5.5,��
2017/12/05,03:30,0.869,1.414,0.907,1.691,1.148,0.488,0.869,0.834,�k��,5.0,��
2017/12/05,03:40,0.872,1.412,0.906,1.689,1.149,0.490,0.869,0.834,�k��,6.1,��
2017/12/05,03:50,0.871,1.411,0.908,1.691,1.150,0.489,0.867,0.833,�k��,8.2,��
2017/12/05,04:00,0.868,1.414,0.909,1.690,1.150,0.490,0.870,0.834,���k��,9.1,��
2017/12/05,04:10,0.873,1.413,0.908,1.692,1.149,0.489,0.868,0.834,�k��,7.2,��
2017/12/05,04:20,0.872,1.416,0.907,1.690,1.150,0.490,0.868,0.835,���k��,8.5,��
2017/12/05,04:30,0.872,1.415,0.907,1.695,1.149,0.489,0.871,0.835,���k��,10.2,��
2017/12/05,04:40,0.872,1.412,0.908,1.693,1.151,0.491,0.869,0.833,���k��,11.3,��
2017/12/05,04:50,0.870,1.413,0.909,1.693,1.150,0.491,0.871,0.836,���k��,10.3,��
2017/12/05,05:00,0.872,1.415,0.909,1.696,1.149,0.490,0.870,0.835,�k��,8.9,��
2017/12/05,05:10,0.871,1.414,0.908,1.693,1.150,0.490,0.871,0.836,�k��,6.5,��
2017/12/05,05:20,0.871,1.413,0.909,1.692,1.151,0.491,0.870,0.836,�k��,6.4,��
2017/12/05,05:30,0.871,1.415,0.910,1.693,1.152,0.490,0.871,0.835,�k��,7.7,��
2017/12/05,05:40,0.872,1.414,0.910,1.695,1.153,0.489,0.872,0.836,�k��,9.0,��
2017/12/05,05:50,0.873,1.418,0.909,1.696,1.150,0.491,0.870,0.838,�k��,5.4,��
2017/12/05,06:00,0.870,1.413,0.911,1.698,1.150,0.490,0.870,0.836,�k��,7.8,��
2017/12/05,06:10,0.872,1.414,0.909,1.699,1.152,0.491,0.873,0.836,�k��,5.8,��
2017/12/05,06:20,0.871,1.416,0.910,1.697,1.153,0.490,0.870,0.835,���k��,6.4,��
2017/12/05,06:30,0.873,1.415,0.910,1.695,1.148,0.490,0.873,0.838,�k��,4.3,��
2017/12/05,06:40,0.870,1.414,0.910,1.699,1.151,0.490,0.874,0.835,�k��,7.9,��
2017/12/05,06:50,0.873,1.415,0.910,1.700,1.151,0.490,0.872,0.837,�k��,5.2,��
2017/12/05,07:00,0.873,1.413,0.912,1.697,1.152,0.488,0.874,0.837,�k��,6.3,��
2017/12/05,07:10,0.871,1.414,0.910,1.700,1.153,0.490,0.872,0.835,�k��,7.5,��
2017/12/05,07:20,0.870,1.416,0.910,1.699,1.151,0.490,0.872,0.836,�k��,8.1,��
2017/12/05,07:30,0.871,1.416,0.910,1.701,1.153,0.491,0.871,0.838,�k��,5.9,��
2017/12/05,07:40,0.872,1.415,0.911,1.703,1.153,0.491,0.872,0.838,���k��,7.6,��
2017/12/05,07:50,0.873,1.416,0.911,1.702,1.151,0.491,0.872,0.835,���k��,9.4,��
2017/12/05,08:00,0.870,1.418,0.910,1.701,1.152,0.491,0.873,0.837,�k��,10.5,��
2017/12/05,08:10,0.871,1.416,0.913,1.701,1.155,0.489,0.873,0.837,�k��,8.7,��
2017/12/05,08:20,0.873,1.415,0.912,1.700,1.153,0.489,0.873,0.838,�k�k��,5.6,��
2017/12/05,08:30,0.873,1.415,0.912,1.703,1.154,0.490,0.872,0.837,�k�k��,4.0,��
2017/12/05,08:40,0.874,1.415,0.911,1.699,1.155,0.491,0.872,0.837,�k��,3.4,��
2017/12/05,08:50,0.872,1.412,0.911,1.702,1.155,0.490,0.871,0.838,�k��,1.7,��
2017/12/05,09:00,0.871,1.413,0.911,1.702,1.153,0.488,0.873,0.838,�k�k��,1.2,��
2017/12/05,09:10,0.873,1.413,0.911,1.703,1.154,0.490,0.873,0.837,�k,1.7,��
2017/12/05,09:20,0.873,1.419,0.911,1.706,1.154,0.490,0.871,0.838,�k��,2.3,��
2017/12/05,09:30,0.874,1.417,0.912,1.704,1.156,0.492,0.871,0.839,�k�k��,3.0,��
2017/12/05,09:40,0.873,1.420,0.912,1.706,1.154,0.492,0.871,0.838,�k�k��,2.0,��
2017/12/05,09:50,0.874,1.419,0.913,1.706,1.156,0.492,0.875,0.838,�k,3.1,��
2017/12/05,10:00,0.878,1.420,0.910,1.701,1.155,0.492,0.874,0.837,�k��,4.1,��
2017/12/05,10:10,0.874,1.422,0.912,1.707,1.156,0.491,0.871,0.838,�k��,5.4,��
2017/12/05,10:20,0.875,1.421,0.912,1.705,1.157,0.491,0.870,0.839,�k��,3.1,��
2017/12/05,10:30,0.877,1.417,0.913,1.709,1.160,0.490,0.870,0.839,�k,3.5,��
2017/12/05,10:40,0.876,1.416,0.914,1.707,1.159,0.491,0.871,0.838,�k�k��,3.9,��
2017/12/05,10:50,0.876,1.418,0.916,1.707,1.160,0.490,0.871,0.839,�k,5.3,��
2017/12/05,11:00,0.876,1.417,0.915,1.706,1.160,0.492,0.870,0.840,�k,4.7,��
2017/12/05,11:10,0.878,1.417,0.915,1.705,1.158,0.492,0.869,0.839,�k,4.7,��
2017/12/05,11:20,0.879,1.421,0.915,1.706,1.160,0.490,0.872,0.838,�k�k��,3.6,�L
2017/12/05,11:30,0.878,1.424,0.914,1.709,1.161,0.490,0.870,0.839,�k,3.5,��
2017/12/05,11:40,0.879,1.425,0.916,1.709,1.160,0.491,0.872,0.841,�k,3.6,�L
2017/12/05,11:50,0.876,1.427,0.914,1.710,1.161,0.492,0.869,0.839,�k,3.1,��
2017/12/05,12:00,0.878,1.427,0.916,1.709,1.161,0.492,0.874,0.839,�k,4.0,��
2017/12/05,12:10,0.877,1.430,0.916,1.710,1.162,0.492,0.874,0.840,�k,5.2,��
2017/12/05,12:20,0.879,1.430,0.919,1.707,1.162,0.491,0.871,0.839,�k�k��,6.3,��
2017/12/05,12:30,0.878,1.428,0.914,1.709,1.160,0.491,0.871,0.841,�k�k��,5.9,��
2017/12/05,12:40,0.878,1.429,0.914,1.709,1.163,0.492,0.871,0.839,�k�k��,5.4,��
2017/12/05,12:50,0.879,1.429,0.916,1.710,1.164,0.492,0.869,0.839,�k�k��,4.7,��
2017/12/05,13:00,0.877,1.426,0.915,1.709,1.163,0.490,0.869,0.838,�k�k��,5.5,��
2017/12/05,13:10,0.876,1.429,0.915,1.708,1.165,0.491,0.870,0.840,�k�k��,5.8,�L
2017/12/05,13:20,0.878,1.429,0.915,1.711,1.164,0.492,0.870,0.839,�k,4.7,��
2017/12/05,13:30,0.878,1.430,0.915,1.710,1.164,0.490,0.871,0.839,�k�k��,5.7,��
2017/12/05,13:40,0.880,1.421,0.917,1.712,1.163,0.492,0.875,0.841,�k,5.0,��
2017/12/05,13:50,0.879,1.429,0.917,1.710,1.161,0.490,0.872,0.839,�k,5.0,��
2017/12/05,14:00,0.878,1.429,0.915,1.712,1.163,0.492,0.874,0.839,�k,5.5,��
2017/12/05,14:10,0.877,1.431,0.915,1.709,1.164,0.491,0.872,0.839,�k�k��,6.2,��
2017/12/05,14:20,0.876,1.430,0.915,1.710,1.162,0.490,0.871,0.839,�k�k��,5.9,��
2017/12/05,14:30,0.878,1.430,0.917,1.711,1.163,0.490,0.872,0.838,�k�k��,5.9,��
2017/12/05,14:40,0.878,1.430,0.915,1.711,1.165,0.493,0.874,0.840,�k��,5.3,��
2017/12/05,14:50,0.879,1.431,0.915,1.710,1.165,0.491,0.873,0.840,�k,6.4,��
2017/12/05,15:00,0.876,1.432,0.914,1.708,1.164,0.492,0.875,0.840,�k,6.3,��
2017/12/05,15:10,0.878,1.430,0.916,1.712,1.163,0.492,0.873,0.839,�k,6.0,��
2017/12/05,15:20,0.878,1.431,0.915,1.710,1.164,0.491,0.874,0.840,�k,6.1,��
2017/12/05,15:30,0.877,1.433,0.916,1.711,1.165,0.492,0.875,0.840,�k,6.2,��
2017/12/05,15:40,0.879,1.435,0.916,1.711,1.165,0.491,0.876,0.840,�k,4.8,��
2017/12/05,15:50,0.878,1.434,0.915,1.712,1.164,0.492,0.875,0.840,�k,3.7,��
2017/12/05,16:00,0.880,1.433,0.917,1.711,1.163,0.491,0.876,0.838,�k,4.3,�L
2017/12/05,16:10,0.876,1.431,0.917,1.711,1.162,0.491,0.875,0.840,�k,3.8,�L
2017/12/05,16:20,0.878,1.434,0.914,1.714,1.164,0.491,0.876,0.841,�k,3.6,��
2017/12/05,16:30,0.877,1.433,0.914,1.711,1.166,0.493,0.875,0.840,�k,2.6,�L
2017/12/05,16:40,0.876,1.435,0.914,1.715,1.166,0.493,0.876,0.838,�k,2.3,�L
2017/12/05,16:50,0.878,1.434,0.919,1.714,1.165,0.491,0.874,0.840,�k,1.7,�L
2017/12/05,17:00,0.877,1.435,0.916,1.712,1.166,0.492,0.875,0.839,�k�k��,2.8,�L
2017/12/05,17:10,0.877,1.435,0.916,1.711,1.163,0.491,0.876,0.838,�k,3.5,�L
2017/12/05,17:20,0.876,1.434,0.915,1.713,1.164,0.493,0.875,0.838,�k,2.3,��
2017/12/05,17:30,0.876,1.434,0.917,1.711,1.163,0.491,0.876,0.839,�k��,5.1,�L
2017/12/05,17:40,0.878,1.437,0.917,1.714,1.166,0.492,0.875,0.838,�k��,6.6,�L
2017/12/05,17:50,0.878,1.432,0.919,1.713,1.162,0.495,0.875,0.839,�k��,6.1,�L
2017/12/05,18:00,0.878,1.424,0.915,1.708,1.156,0.497,0.873,0.837,�k��,6.1,�L
2017/12/05,18:10,0.876,1.417,0.915,1.702,1.151,0.498,0.870,0.838,�k,4.2,�L
2017/12/05,18:20,0.873,1.413,0.912,1.696,1.151,0.498,0.869,0.836,�k�k��,5.1,�L
2017/12/05,18:30,0.876,1.411,0.912,1.699,1.150,0.499,0.871,0.835,�k�k��,4.9,�L
2017/12/05,18:40,0.873,1.413,0.913,1.694,1.149,0.500,0.869,0.836,�k�k��,4.6,�L
2017/12/05,18:50,0.874,1.414,0.912,1.696,1.150,0.496,0.871,0.835,�k�k��,5.0,�L
2017/12/05,19:00,0.871,1.413,0.913,1.697,1.150,0.495,0.870,0.834,�k�k��,6.3,��
2017/12/05,19:10,0.871,1.411,0.911,1.693,1.147,0.494,0.869,0.834,�k�k��,7.8,��
2017/12/05,19:20,0.868,1.411,0.910,1.693,1.147,0.492,0.868,0.834,���k��,6.6,��
2017/12/05,19:30,0.867,1.413,0.910,1.692,1.150,0.491,0.869,0.833,�k��,7.8,��
2017/12/05,19:40,0.869,1.411,0.907,1.691,1.146,0.492,0.870,0.833,�k��,7.6,��
2017/12/05,19:50,0.869,1.412,0.905,1.691,1.146,0.491,0.868,0.835,�k�k��,8.0,��
2017/12/05,20:00,0.867,1.411,0.904,1.688,1.145,0.488,0.867,0.834,�k�k��,7.4,��
2017/12/05,20:10,0.867,1.411,0.903,1.692,1.145,0.489,0.868,0.831,�k�k��,7.9,��
2017/12/05,20:20,0.866,1.411,0.904,1.688,1.143,0.488,0.867,0.832,�k�k��,7.9,��
2017/12/05,20:30,0.867,1.409,0.904,1.687,1.146,0.488,0.867,0.832,�k�k��,10.2,��
2017/12/05,20:40,0.865,1.411,0.903,1.687,1.142,0.487,0.867,0.832,�k�k��,10.3,��
2017/12/05,20:50,0.865,1.412,0.903,1.687,1.148,0.489,0.867,0.833,�k�k��,8.5,��
2017/12/05,21:00,0.866,1.411,0.903,1.690,1.142,0.488,0.865,0.833,�k�k��,9.3,��
2017/12/05,21:10,0.866,1.411,0.902,1.691,1.145,0.486,0.867,0.833,�k�k��,8.4,��
2017/12/05,21:20,0.867,1.411,0.903,1.690,1.145,0.485,0.867,0.832,�k��,9.0,��
2017/12/05,21:30,0.868,1.409,0.903,1.692,1.147,0.484,0.867,0.833,�k�k��,10.2,��
2017/12/05,21:40,0.866,1.413,0.902,1.689,1.145,0.484,0.866,0.832,�k�k��,8.4,��
2017/12/05,21:50,0.868,1.412,0.902,1.692,1.145,0.485,0.869,0.830,�k�k��,9.2,��
2017/12/05,22:00,0.865,1.412,0.902,1.689,1.145,0.486,0.866,0.834,�k�k��,10.0,��
2017/12/05,22:10,0.866,1.412,0.904,1.691,1.147,0.488,0.868,0.835,�k�k��,9.6,��
2017/12/05,22:20,0.865,1.414,0.904,1.693,1.148,0.487,0.867,0.835,�k�k��,10.3,��
2017/12/05,22:30,0.868,1.415,0.906,1.691,1.148,0.486,0.869,0.833,�k�k��,8.1,��
2017/12/05,22:40,0.865,1.412,0.903,1.694,1.147,0.486,0.868,0.834,�k�k��,8.4,��
2017/12/05,22:50,0.864,1.413,0.902,1.693,1.147,0.486,0.868,0.833,�k�k��,8.8,��
2017/12/05,23:00,0.865,1.413,0.903,1.694,1.149,0.487,0.868,0.833,�k�k��,7.8,��
2017/12/05,23:10,0.866,1.413,0.902,1.694,1.150,0.486,0.867,0.834,�k�k��,8.7,��
2017/12/05,23:20,0.867,1.412,0.902,1.691,1.146,0.483,0.868,0.834,�k�k��,8.4,��
2017/12/05,23:30,0.865,1.413,0.900,1.695,1.147,0.483,0.868,0.833,�k�k��,8.0,��
2017/12/05,23:40,0.866,1.416,0.902,1.691,1.150,0.485,0.866,0.832,�k�k��,9.0,��
2017/12/05,23:50,0.866,1.416,0.903,1.695,1.149,0.486,0.867,0.833,�k�k��,9.3,��
